This is the latest recevied weather packets stored in our database for station/object WA1TYB-13. If no packets are shown the sender has not sent any weather packets the latest 10 day(s).
| Time | Temp. | Humidity | Pressure | Rain* | Wind** | Luminosity | Snow |
|---|---|---|---|---|---|---|---|
| 1777865641 | 16.11° C | 27% | 1010.7 hPa | 0 mm | - | 0 W/m² | - |
| 1777865337 | 16.11° C | 25% | 1010.6 hPa | 0 mm | - | 0 W/m² | - |
| 1777865034 | 17.22° C | 23% | 1010.7 hPa | 0 mm | - | 0 W/m² | - |
| 1777864730 | 17.78° C | 22% | 1010.5 hPa | 0 mm | - | 0 W/m² | - |
| 1777864428 | 18.33° C | 20% | 1010.4 hPa | 0 mm | - | 0 W/m² | - |
| 1777864124 | 18.33° C | 21% | 1010.6 hPa | 0 mm | - | 0 W/m² | - |
| 1777863822 | 17.78° C | 22% | 1010.3 hPa | 0 mm | - | 0 W/m² | - |
| 1777863517 | 16.67° C | 23% | 1010.4 hPa | 0 mm | - | 0 W/m² | - |
| 1777863215 | 16.67° C | 25% | 1010.1 hPa | 0 mm | - | 0 W/m² | - |
| 1777862911 | 16.67° C | 25% | 1010.1 hPa | 0 mm | - | 0 W/m² | - |
| 1777862608 | 17.22° C | 25% | 1010.2 hPa | 0 mm | - | 0 W/m² | - |
| 1777862304 | 17.78° C | 25% | 1010.1 hPa | 0 mm | - | 3 W/m² | - |
| 1777862001 | 17.78° C | 24% | 1010.2 hPa | 0 mm | - | 5 W/m² | - |
| 1777861697 | 18.33° C | 25% | 1010.2 hPa | 0 mm | - | 7 W/m² | - |
| 1777861394 | 18.89° C | 24% | 1010.1 hPa | 0 mm | - | 11 W/m² | - |
| 1777861090 | 18.89° C | 23% | 1010.1 hPa | 0 mm | - | 14 W/m² | - |
| 1777860788 | 19.44° C | 22% | 1009.8 hPa | 0 mm | - | 19 W/m² | - |
| 1777860485 | 20° C | 21% | 1009.9 hPa | 0 mm | - | 23 W/m² | - |
| 1777860182 | 20° C | 19% | 1010.2 hPa | 0 mm | - | 26 W/m² | - |
| 1777859877 | 20.56° C | 19% | 1010.1 hPa | 0 mm | - | 29 W/m² | - |
| 1777859574 | 20.56° C | 19% | 1010.2 hPa | 0 mm | - | 29 W/m² | - |
| 1777859270 | 20.56° C | 19% | 1010.2 hPa | 0 mm | - | 32 W/m² | - |
| 1777858966 | 21.11° C | 19% | 1010.1 hPa | 0 mm | - | 38 W/m² | - |
| 1777858664 | 21.67° C | 18% | 1010.1 hPa | 0 mm | - | 46 W/m² | - |
| 1777858362 | 21.67° C | 17% | 1009.9 hPa | 0 mm | - | 56 W/m² | - |
* Rain latest hour (hover to see other rain measurements)
** Current wind speed in m/s (hover to see current wind gust speed)